Regional Weather Roundup
Issued by NWS

Home | Current Version | Previous Version | Graphics & Text | Print | Product List | Glossary On
Versions: 1 2 3 4 5 6 7 8 9 10 11 12 13 14 15 16 17 18 19 20 21 22 23 24 25 26 27 28 29 30 31 32 33 34 35 36 37 38 39 40 41 42 43 44 45 46 47 48 49 50
219
ASUS43 KMKX 272011
RWRWI

WISCONSIN REGIONAL WEATHER ROUNDUP
NATIONAL WEATHER SERVICE MILWAUKEE/SULLIVAN WI
300 PM CDT MON MAR 27 2017

NOTE: "FAIR" INDICATES FEW OR NO CLOUDS BELOW 12,000 FEET WITH NO
SIGNIFICANT WEATHER AND/OR OBSTRUCTIONS TO VISIBILITY.

WIZ001-002-006>008-014>016-023>028-272100-
NORTHWEST WISCONSIN

CITY           SKY/WX    TMP DP  RH WIND       PRES   REMARKS
SUPERIOR ARPT  CLOUDY    46  35  65 E3        29.99S
ASHLAND        CLOUDY    47  36  65 N8        29.98S
HAYWARD        CLOUDY    56  31  38 NE9       29.94S
SIREN          CLOUDY    55  33  44 N6        29.95S
CUMBERLAND     CLOUDY    54  32  43 NE7       29.94F
RICE LAKE      CLOUDY    51  35  54 CALM      29.97S
CHETEK         CLOUDY    48  37  65 E6        29.96S
LADYSMITH      CLOUDY    50  38  64 NE5       29.97S
EAU CLAIRE     CLOUDY    44  36  73 NE3       29.97R
MENOMONIE      CLOUDY    46  37  69 N3        29.98S
NEW RICHMOND   CLOUDY    54  36  50 SE3       29.96S
OSCEOLA        CLOUDY    55  35  46 NW5       29.98S
$$

WIZ003>005-009-010-017-018-272100-
NORTH CENTRAL WISCONSIN

CITY           SKY/WX    TMP DP  RH WIND       PRES   REMARKS
MANITOWISH WTR CLOUDY    44  35  71 CALM      29.95R
ARBOR VITAE    CLOUDY    44  34  68 N5        29.94S
WOODRUFF       CLOUDY    44  34  68 N5        29.94S
RHINELANDER    CLOUDY    44  36  73 NE6       29.94F
EAGLE RIVER    CLOUDY    43  32  63 CALM      29.94S
LAND O LAKES   CLOUDY    40  34  79 N3        29.97R
PHILLIPS       CLOUDY    46  34  63 NE6       29.94S
TOMAHAWK       CLOUDY    41  36  80 N3        29.95S
MEDFORD        CLOUDY    40  36  86 N5        29.94S
MERRILL        CLOUDY    41  37  86 CALM      29.95S
$$

WIZ029-030-035-036-043>047-272100-
CENTRAL WISCONSIN

CITY           SKY/WX    TMP DP  RH WIND       PRES   REMARKS
WAUSAU         CLOUDY    42  36  79 NW3       29.93F
MOSINEE        CLOUDY    41  37  87 CALM      29.95F
MARSHFIELD     CLOUDY    41  36  82 NW5       29.94S
STEVENS POINT  CLOUDY    40  38  94 CALM      29.95F
WAUPACA        CLOUDY    46  40  81 CALM      29.95S
WAUTOMA        CLOUDY    47  42  83 NW5       29.94F
WISC RAPIDS    CLOUDY    44  40  85 N6        29.95F
CAMP DOUGLAS   CLOUDY    48  43  81 CALM      29.93F
$$

WIZ011>013-019>022-031-037>040-048>050-272100-
NORTHEAST WISCONSIN

CITY           SKY/WX    TMP DP  RH WIND       PRES   REMARKS
ANTIGO         CLOUDY    40  37  89 CALM      29.94S
SHAWANO        CLOUDY    43  38  80 CALM      29.96S
OCONTO         CLOUDY    38  32  78 E3        29.96F
STURGEON BAY   CLOUDY    39  35  86 N6        29.94S WCI  35
GREEN BAY      CLOUDY    44  38  79 N6        29.95F
MANITOWOC      CLOUDY    39  35  86 E6        29.96S WCI  35
APPLETON       CLOUDY    43  41  93 NW6       29.93F
CLINTONVILLE   CLOUDY    41  37  87 N5        29.95S
OSHKOSH        CLOUDY    44  38  79 E6        29.94S
$$

WIZ032>034-041-042-053>061-272100-
SOUTHWEST WISCONSIN

CITY           SKY/WX    TMP DP  RH WIND       PRES   REMARKS
LA CROSSE      CLOUDY    50  42  74 NW9       29.94F
SPARTA         CLOUDY    47  42  81 NW5       29.95S
VIROQUA        CLOUDY    46  43  89 CALM      29.93S
BOSCOBEL       CLOUDY    50  43  77 CALM      29.94F
PRAIRIE DU CHI CLOUDY    46  44  94 SW3       29.94F FOG
PLATTEVILLE    CLOUDY    47  46  93 CALM      29.93F
$$

WIZ056-057-062-063-064-067-068-272100-
SOUTH CENTRAL WISCONSIN

CITY           SKY/WX    TMP DP  RH WIND       PRES   REMARKS
REEDSBURG      CLOUDY    47  45  91 CALM      29.93F
BARABOO/DELLS  CLOUDY    47  42  81 CALM      29.92F
LONE ROCK      CLOUDY    48  42  80 CALM      29.94S
MINERAL POINT  CLOUDY    46  45  93 CALM      29.92F
MADISON        CLOUDY    47  41  80 CALM      29.93F
MIDDLETON      CLOUDY    48  43  82 CALM      29.93F
WATERTOWN      CLOUDY    47  43  86 NW3       29.92F
MONROE         CLOUDY    46  43  87 NE5       29.92S
JANESVILLE     CLOUDY    50  45  81 CALM      29.92R
$$

WIZ051-052-058>065-066-070>072-272100-
SOUTHEAST WISCONSIN

CITY           SKY/WX    TMP DP  RH WIND       PRES   REMARKS
MILWAUKEE      CLOUDY    46  39  76 E3        29.94S
WAUKESHA       CLOUDY    45  39  81 CALM      29.94F
MILWAUKEE/TIMM CLOUDY    45  37  76 CALM      29.95S
RACINE         CLOUDY    44  38  79 E6        29.95F
KENOSHA        CLOUDY    44  40  85 E8        29.94R
FOND DU LAC    CLOUDY    48  40  73 CALM      29.93F
SHEBOYGAN      CLOUDY    43  38  82 CALM      29.94S
WEST BEND      CLOUDY    46  43  87 CALM      29.93F
JUNEAU         CLOUDY    45  42  88 CALM      29.94S
$$

LSZ147-162-272100-
LAKE SUPERIOR

STATION/POSITION TIME  TEMP    WIND        PRES    WAVE
                       AIR SEA DIR/SP/G            HT/PER
                 (UTC) (F)     (DEG/KT/KT) (MB)    (FT/S)
DEVILS ISLAND    2000   35     260/  5/  8 1016.3F
PORT WING        1930   36     330/  4/  5 1015.6S
SAXON HARBOR     1940   36      40/  3/  4 1015.6S
$$

LMZ867-665-643>646-272100-
LAKE MICHIGAN

STATION/POSITION TIME  TEMP    WIND        PRES    WAVE
                       AIR SEA DIR/SP/G            HT/PER
                 (UTC) (F)     (DEG/KT/KT) (MB)    (FT/S)
CHAMBERS ISLAND  1940   36      30/  3/  4 1014.2F
NORTHPORT PIER   1940   37     310/  2/  3 1014.6S
SISTER BAY       1806   36     340/  8/  9   N/A
KEWAUNEE LAKESHO 1948   38      50/  1/  3 1013.9F
SHEBOYGAN LAKESH 2000   37      50/  4/  4 1014.5F
PORT WASHINGTON  1940   41     170/  2/  4 1015.2S
MILWAUKEE LAKESH 1950   39     110/  1/  2   N/A
KENOSHA   LAKESH 2000   41        CALM     1014.2
$$

TC  - TEMPERATURE IN CELSIUS
VSB - VISIBILITY IN STATUTE MILES
WCI - WIND CHILL INDEX
HX  - HEAT INDEX





USA.gov is the U.S. government's official web portal to all federal, state and local government web resources and services.